Regional Weather Roundup
Issued by NWS

Home | Current Version | Previous Version | Graphics & Text | Print | Product List | Glossary On
Versions: 1 2 3 4 5 6 7 8 9 10 11 12 13 14 15 16 17 18 19 20 21 22 23 24 25 26 27 28 29 30 31 32 33 34 35 36 37 38 39 40 41 42 43 44 45 46 47 48 49 50
000
ASUS45 KPSR 261510
RWRAZ

ARIZONA REGIONAL HOURLY WEATHER ROUNDUP
NATIONAL WEATHER SERVICE PHOENIX AZ
800 AM MST WED NOV 26 2014

NOTE: FAIR INDICATES FEW OR NO CLOUDS BELOW 12,000 FEET WITH NO
SIGNIFICANT WEATHER AND/OR OBSTRUCTIONS TO VISIBILITY.

AZZ001>003-036-261600-
NORTHWEST ARIZONA

CITY           SKY/WX    TMP DP  RH WIND       PRES   REMARKS
BULLHEAD CITY  SUNNY     57  16  19 N18       30.34S
KINGMAN        SUNNY     38   9  30 E5        30.38S WCI  34
$$

AZZ004>008-015-016-018-261600-
NORTH CENTRAL ARIZONA

CITY           SKY/WX    TMP DP  RH WIND       PRES   REMARKS
GRAND CANYON   MOSUNNY   20   8  60 CALM      30.45R
PRESCOTT       SUNNY     34  15  46 SW5       30.41R WCI  30
FLAGSTAFF      SUNNY     25  16  68 CALM      30.44R
PAYSON         SUNNY     46   9  21 CALM      30.39R
PAGE           SUNNY     39   9  29 CALM      30.40R
$$

AZZ009>014-017-261600-
NORTHEAST ARIZONA

CITY           SKY/WX    TMP DP  RH WIND       PRES   REMARKS
WINSLOW        MOSUNNY   25   2  37 CALM      30.45R
SAINT JOHNS    SUNNY     26   8  46 CALM      30.43R
SHOW LOW       SUNNY     28   9  43 CALM      30.46R
$$

AZZ023-261600-
GREATER PHOENIX AREA

CITY           SKY/WX    TMP DP  RH WIND       PRES   REMARKS
PHOENIX        SUNNY     48  18  30 E5        30.31R
BUCKEYE          N/A     37   9  30 N3        30.32R
GLENDALE       SUNNY     43  23  45 CALM      30.33R
LUKE AFB       MOSUNNY   42  17  35 N1        30.31R
DEER VALLEY    SUNNY     46   9  22 CALM      30.31R
SCOTTSDALE     SUNNY     45  18  34 CALM      30.32S
MESA-FALCON    SUNNY     43  14  31 VRB7        N/A
MESA-GATEWAY   SUNNY     37  10  32 SE3       30.33R
CHANDLER       SUNNY     41  19  42 CALM      30.32S
$$

AZZ027-028-261600-
SOUTHWEST MARICOPA COUNTY AND PINAL COUNTY

CITY           SKY/WX    TMP DP  RH WIND       PRES   REMARKS
CASA GRANDE    SUNNY     41   9  26 CALM      30.32R
GILA BEND      SUNNY     43   3  19 E10       30.29S
$$

AZZ503-504-507>509-261600-
SOUTHEAST ARIZONA

CITY           SKY/WX    TMP DP  RH WIND       PRES   REMARKS
TUCSON         SUNNY     42   5  21 SE9       30.33R
DAVIS-MONTHAN  SUNNY     44   3  19 SE9       30.31R
RYAN FIELD       N/A     39  12  33 E7        30.33R WCI  34
NOGALES        SUNNY     40   6  24 CALM      30.32R
SIERRA VISTA   SUNNY     45   3  18 CALM      30.35R
DOUGLAS        MOSUNNY   33   7  33 CALM      30.36R
SAFFORD        SUNNY     34   4  28 E3        30.36R
$$

AZZ020-021-025-026-031-261600-
SOUTHWEST ARIZONA

CITY           SKY/WX    TMP DP  RH WIND       PRES   REMARKS
YUMA           MOSUNNY   53  17  24 N9        30.29R
$$

CAZ031-033-041-043-047-048-061-261600-
SOUTHERN CALIFORNIA

CITY           SKY/WX    TMP DP  RH WIND       PRES   REMARKS
DOWNTOWN L.A.  SUNNY     56  23  27 CALM      30.22R
L.A. AIRPORT   SUNNY     59  23  25 CALM      30.23R
SAN DIEGO      SUNNY     56  25  30 N5        30.22S
BURBANK        SUNNY     50  26  39 CALM      30.23R
ONTARIO        SUNNY     55  24  30 NE3       30.24S
RIVERSIDE      SUNNY     50  25  37 VRB3      30.25R
PALM SPRINGS   SUNNY     51  19  28 N3        30.30R
EL CENTRO NAS  SUNNY     44  20  38 SW7       30.28R
IMPERIAL       FAIR      44  23  43 S3        30.28R
BLYTHE         SUNNY     49  17  28 S6        30.32R
NEEDLES        SUNNY     49  15  25 NW3       30.34R
$$

NVZ020-UTZ003-261600-
SOUTHERN NEVADA-UTAH

CITY           SKY/WX    TMP DP  RH WIND       PRES   REMARKS
LAS VEGAS      SUNNY     45  15  30 S9        30.36R
SALT LAKE CITY MOSUNNY   39  27  62 SE9       30.38R WCI  33
$$

NMZ009-TXZ055-261600-
NEW MEXICO-WEST TEXAS

CITY           SKY/WX    TMP DP  RH WIND       PRES   REMARKS
ALBUQUERQUE    MOSUNNY   36   9  32 CALM      30.37R
EL PASO        MOSUNNY   37  11  34 CALM      30.35R
$$


........................KEY........................
SKY/WX - SKY CONDITION/WEATHER
TMP    - TEMPERATURE IN FAHRENHEIT
DP     - DEW POINT IN FAHRENHEIT
RH     - RELATIVE HUMIDITY IN PERCENT
WIND   - DIRECTION AND SPEED IN MILES PER HOUR (MPH)
VRB    - VARIABLE WIND DIRECTION
PRES   - MEAN SEA LEVEL PRESSURE IN INCHES OF MERCURY
         F - FALLING PRESSURE   R - RISING PRESSURE
         S - STEADY PRESSURE
VSB    - VISIBILITY IN MILES
HX     - HEAT INDEX IN FAHRENHEIT
WCI    - WIND CHILL INDEX IN FAHRENHEIT
TC     - TEMPERATURE IN CELSIUS WHICH IS ALSO KNOWN AS
         TEMPERATURE IN CENTIGRADE
AFB    - AIR FORCE BASE
         LUKE AFB IS LUKE AIR FORCE BASE
         DAVIS-MONTHAN IS DAVIS-MONTHAN AIR FORCE BASE
NAS    - NAVAL AIR STATION
         EL CENTRO NAS IS EL CENTRO NAVAL AIR STATION
N/A    - NOT AVAILABLE


USA.gov is the U.S. government's official web portal to all federal, state and local government web resources and services.